Regional Weather Roundup
Issued by NWS

Home | Current Version | Previous Version | Text Only | Print | Product List | Glossary On
Versions: 1 2 3 4 5 6 7 8 9 10 11 12 13 14 15 16 17 18 19 20 21 22 23 24 25 26 27 28 29 30 31 32 33 34 35 36 37 38 39 40 41 42 43 44 45 46 47 48 49 50
549
ASUS44 KJAN 011310
RWRMS

MISSISSIPPI HOURLY WEATHER ROUNDUP
NATIONAL WEATHER SERVICE JACKSON MS
700 AM CST SUN FEB 01 2015

NOTE: "FAIR: INDICATES FEW OR NO CLOUDS BELOW 12,000 FEET WITH NO
SIGNIFICANT WEATHER AND/OR OBSTRUCTIONS TO VISIBILITY.

MSZ001>002-007>008-010>013-018>021-025>028-034>036-011400-
NORTHWEST MISSISSIPPI

CITY           SKY/WX    TMP DP  RH WIND       PRES   REMARKS
CLARKSDALE     CLOUDY    50  50 100 S17       29.91F
CLEVELAND      CLOUDY    52  51  98 S20       29.91F
GREENWOOD      CLOUDY    52  51  97 S21G28    29.96R
GREENVILLE     CLOUDY    53  50  89 S16       29.91F
GRENADA        RAIN      50  48  93 S8        29.97R
OLIVE BRANCH   LGT RAIN  46  46 100 S10G16    29.90F
OXFORD         CLOUDY    46  46 100 SE15      29.94F FOG
TUNICA         DRIZZLE   50  46  87 S18       29.89F
$$

MSZ003>006-009-014>017-022>024-029>033-037>039-011400-
NORTHEAST MISSISSIPPI

CITY           SKY/WX    TMP DP  RH WIND       PRES   REMARKS
COLUMBUS AFB   LGT RAIN  45  40  83 SE10      30.05F
GOLDN TRIANGLE LGT RAIN  45  37  76 SE12      30.05F FOG
STARKVILLE     LGT RAIN  43  41  93 SE12G18   30.04F
TUPELO         LGT RAIN  47  42  83 S14       30.01F
$$

MSZ040-058-011400-
CENTRAL MISSISSIPPI

CITY           SKY/WX    TMP DP  RH WIND       PRES   REMARKS
JACKSON INTL   CLOUDY    52  50  93 S9        30.01F
JACKSON HAWKNS LGT RAIN  51  50  96 SE9       30.00S
MERIDIAN KEY   LGT RAIN  50  47  89 CALM      30.07S
MERIDIAN NAS   LGT RAIN  43  41  93 CALM      30.09S
RAYMOND        FAIR      52  46  82 SE7       29.99F
VICKSBURG      CLOUDY    53  50  89 S10       29.97F
$$

MSZ059>079-011400-
SOUTH MISSISSIPPI

CITY           SKY/WX    TMP DP  RH WIND       PRES   REMARKS
BROOKHAVEN     CLOUDY    55  54  94 SE7       30.01F
HATTIESBURG    RAIN      53  51  93 SE9       30.04F
MCCOMB         CLOUDY    57  54  89 SE9       30.00F
NATCHEZ        CLOUDY    57  52  82 S10       29.98S
PINE BELT      CLOUDY    52  46  82 SE8       30.03F
$$

MSZ080>082-011400-
COASTAL MISSISSIPPI

CITY           SKY/WX    TMP DP  RH WIND       PRES   REMARKS
BAY ST LOUIS   DRIZZLE   61  54  77 SE3       30.04
BILOXI         MOCLDY    59  56  90 SE9       30.04F
PASCAGOULA     CLOUDY    52  51  97 CALM      30.07R
GULFPORT       LGT RAIN  60  56  86 SE7       30.04F
$$



USA.gov is the U.S. government's official web portal to all federal, state and local government web resources and services.